Weather History for KVOK - July, 2012

Change the Weather History Date:

Saturday, July 14, 2012

  Actual Average Record
Temperature  
Mean Temperature 76 °F -  
Max Temperature 86 °F 78 °F 91 °F (2005)
Min Temperature 65 °F 63 °F 46 °F (2014)
Cooling Degree Days 10    
Growing Degree Days 26 (Base 50)    
Moisture  
Dew Point 69 °F    
Average Humidity 87    
Maximum Humidity 100    
Minimum Humidity 58    
Precipitation  
Precipitation 0.06 in - - ()
Sea Level Pressure  
Sea Level Pressure 29.99 in    
Wind  
Wind Speed 6 mph (SSW)    
Max Wind Speed 15 mph    
Max Gust Speed 20 mph    
Visibility 9 miles    
Events Rain , Thunderstorm    
Averages and records for this station are not official NWS values.
T = Trace of Precipitation, MM = Missing Value Source: NWS Daily Summary

Daily Weather History Graph

Daily Weather History Graph

Search for Another Location

Airport or City:

Trip Planner

Search our weather history database for the weather conditions in past years. The results will help you decide how hot, cold, wet, or windy it might be!

Date:

Astronomy

Jul. 14, 2012 Rise Set
Actual Time 5:31 AM CDT 8:41 PM CDT
Civil Twilight 4:56 AM CDT 9:16 PM CDT
Nautical Twilight 4:11 AM CDT 10:01 PM CDT
Astronomical Twilight 3:17 AM CDT 10:55 PM CDT
Moon 1:47 AM CDT (7/14) 5:05 PM CDT (7/14)
Length of Visible Light 16h 19m
Length of Day
15h 09m
Waning Crescent, 18% of the Moon is Illuminated
Jul 14
Waning Crescent
Jul 18
New
Jul 26
First Quarter
Aug 1
Full
Aug 9
Last Quarter

Hourly Weather History & Observations

Time (CDT) Temp. Heat Index Dew Point Humidity Pressure Visibility Wind Dir Wind Speed Gust Speed Precip Events Conditions
12:55 AM 72.1 °F - 68.2 °F 87% 29.98 in 10.0 mi South 5.8 mph - N/A   Scattered Clouds
1:55 AM 72.7 °F - 65.7 °F 79% 29.99 in 10.0 mi SSW 8.1 mph - N/A   Scattered Clouds
2:55 AM 70.2 °F - 66.0 °F 87% 29.98 in 10.0 mi WSW 3.5 mph - N/A   Clear
3:55 AM 65.3 °F - 65.3 °F 100% 29.98 in 10.0 mi NW 4.6 mph - N/A   Partly Cloudy
4:55 AM 67.6 °F - 67.3 °F 99% 30.00 in 10.0 mi West 3.5 mph - N/A   Mostly Cloudy
5:55 AM 69.8 °F - 66.9 °F 91% 30.00 in 10.0 mi SSE 4.6 mph - N/A   Mostly Cloudy
6:18 AM 69.8 °F - 68.0 °F 94% 29.99 in 10.0 mi SSE 8.1 mph - N/A Rain Light Rain
6:30 AM 69.8 °F - 68.0 °F 94% 30.00 in 10.0 mi SSE 4.6 mph - N/A   Scattered Clouds
6:55 AM 69.3 °F - 67.6 °F 95% 30.00 in 10.0 mi Calm Calm - 0.00 in   Light Drizzle
7:04 AM 69.8 °F - 68.0 °F 94% 30.01 in 10.0 mi NNW 6.9 mph - N/A Thunderstorm Scattered Clouds
7:10 AM 69.8 °F - 68.0 °F 94% 30.01 in 10.0 mi North 8.1 mph - N/A Rain , Thunderstorm Light Rain
7:20 AM 69.8 °F - 66.2 °F 88% 30.01 in 10.0 mi NNW 6.9 mph - N/A Rain , Thunderstorm Light Thunderstorms and Rain
7:26 AM 68.0 °F - 66.2 °F 94% 30.01 in 2.5 mi Calm Calm - N/A Rain , Thunderstorm Heavy Thunderstorms and Rain
7:27 AM 68.0 °F - 66.2 °F 94% 30.00 in 2.0 mi Calm Calm - N/A Rain , Thunderstorm Thunderstorms and Rain
7:32 AM 68.0 °F - 66.2 °F 94% 30.01 in 2.5 mi Calm Calm - N/A Rain , Thunderstorm Light Thunderstorms and Rain
7:34 AM 68.0 °F - 66.2 °F 94% 30.01 in 3.0 mi Calm Calm - N/A Rain , Thunderstorm Light Thunderstorms and Rain
7:54 AM 66.2 °F - 66.2 °F 100% 30.01 in 9.0 mi Calm Calm - N/A Rain , Thunderstorm Light Rain
7:55 AM 66.2 °F - 66.2 °F 100% 30.01 in 9.0 mi Calm Calm - 0.06 in Rain , Thunderstorm Light Rain
8:16 AM 68.0 °F - 68.0 °F 100% - 10.0 mi SSE 3.5 mph - N/A   Overcast
8:55 AM 68.0 °F - 68.0 °F 100% 30.03 in 10.0 mi ESE 6.9 mph - 0.00 in   Overcast
9:55 AM 71.6 °F - 69.8 °F 94% 30.03 in 10.0 mi SSE 6.9 mph - N/A   Overcast
10:55 AM 77.0 °F - 66.2 °F 69% 30.03 in 10.0 mi South 8.1 mph - N/A   Overcast
11:55 AM 80.6 °F 83.2 °F 68.0 °F 65% 30.01 in 10.0 mi South 10.4 mph 19.6 mph N/A   Mostly Cloudy
12:55 PM 84.2 °F 87.3 °F 68.0 °F 58% 30.00 in 10.0 mi SW 13.8 mph - N/A   Mostly Cloudy
1:55 PM 82.4 °F 86.3 °F 69.8 °F 66% 29.98 in 10.0 mi West 15.0 mph 19.6 mph N/A   Mostly Cloudy
2:55 PM 82.4 °F 86.3 °F 69.8 °F 66% 29.97 in 10.0 mi WSW 9.2 mph - N/A   Mostly Cloudy
3:55 PM 86.0 °F 90.4 °F 69.8 °F 58% 29.96 in 10.0 mi West 8.1 mph - N/A   Mostly Cloudy
4:22 PM 84.2 °F 87.3 °F 68.0 °F 58% 29.96 in 10.0 mi WSW 13.8 mph 18.4 mph N/A Rain Light Rain Showers
4:26 PM 84.2 °F 87.3 °F 68.0 °F 58% 29.96 in 10.0 mi SW 12.7 mph 18.4 mph N/A   Mostly Cloudy
4:55 PM 84.2 °F 87.3 °F 68.0 °F 58% 29.94 in 10.0 mi West 11.5 mph - N/A   Mostly Cloudy
5:29 PM 80.6 °F 84.6 °F 71.6 °F 74% 29.96 in 10.0 mi East 11.5 mph - N/A Thunderstorm Mostly Cloudy
5:34 PM 78.8 °F - 71.6 °F 78% 29.96 in 10.0 mi ENE 8.1 mph - N/A Rain , Thunderstorm Light Rain Showers
5:48 PM 75.2 °F - 73.4 °F 94% 29.98 in 4.0 mi NNE 11.5 mph - N/A Rain , Thunderstorm Heavy Thunderstorms and Rain
5:55 PM 73.4 °F - 73.4 °F 100% 29.96 in 7.0 mi East 10.4 mph - N/A Rain , Thunderstorm Light Thunderstorms and Rain
6:14 PM 73.4 °F - 73.4 °F 100% 29.96 in 10.0 mi SE 5.8 mph - N/A   Mostly Cloudy
6:55 PM 75.2 °F - 75.2 °F 100% 29.95 in 10.0 mi SSE 6.9 mph - N/A   Mostly Cloudy
7:55 PM 75.2 °F - 75.2 °F 100% 29.96 in 10.0 mi Calm Calm - N/A   Mostly Cloudy
8:55 PM 71.6 °F - 71.6 °F 100% 29.97 in 10.0 mi Calm Calm - N/A   Scattered Clouds
9:55 PM 69.8 °F - 69.8 °F 100% 29.99 in 10.0 mi Calm Calm - N/A   Scattered Clouds
10:32 PM 68.0 °F - 68.0 °F 100% 29.99 in 2.5 mi Calm Calm - N/A   Partly Cloudy
10:55 PM 68.0 °F - 68.0 °F 100% 30.00 in 10.0 mi Calm Calm - N/A   Scattered Clouds
11:55 PM 68.2 °F - 68.2 °F 100% 30.00 in 9.0 mi Calm Calm - N/A   Clear